Location: Kimberly
(42.5380°N, 114.3640°W)
Time: 09:04:01
(UTC-06:00)

ISS - Visible Passes

Search period start: 23 September 2023 00:00
Search period end: 03 October 2023 00:00
Orbit: 414 x 422 km, 51.6° (Epoch: 23 September)

Date Brightness Start Highest point End Pass type
(mag) Time Alt. Az. Time Alt. Az. Time Alt. Az.
23 Sep -1.4 20:35:31 10° NW 20:37:48 17° N 20:40:06 10° NE visible
23 Sep -0.7 22:12:28 10° NW 22:13:12 14° NNW 22:13:12 14° NNW visible
24 Sep -1.8 21:24:32 10° NW 21:26:58 21° N 21:26:58 21° N visible
25 Sep -1.7 20:36:30 10° NW 20:38:57 19° N 20:40:43 13° NE visible
25 Sep -0.6 22:13:01 10° NW 22:13:38 14° NW 22:13:38 14° NW visible
26 Sep -2.3 21:25:01 10° NW 21:27:22 30° N 21:27:22 30° N visible
27 Sep -2.3 20:37:01 10° NW 20:39:54 26° NNE 20:41:07 21° NE visible
27 Sep -0.4 22:13:34 10° WNW 22:14:02 13° WNW 22:14:02 13° WNW visible
28 Sep -2.0 19:48:56 10° NW 19:51:35 21° NNE 19:54:14 10° ENE visible
28 Sep -2.7 21:25:24 10° NW 21:27:48 43° NW 21:27:48 43° NW visible
29 Sep -3.4 20:37:18 10° NW 20:40:33 49° NNE 20:41:35 34° E visible
29 Sep -0.3 22:14:26 10° W 22:14:31 10° W 22:14:31 10° W visible
30 Sep -2.8 19:49:10 10° NW 19:52:15 34° NNE 19:55:20 10° E visible
30 Sep -2.2 21:25:55 10° WNW 21:28:21 33° WSW 21:28:21 33° WSW visible
01 Oct -3.6 20:37:34 10° WNW 20:40:52 66° SW 20:42:15 31° SE visible
02 Oct -3.8 19:49:17 10° NW 19:52:37 74° NNE 19:55:57 10° ESE visible
02 Oct -1.1 21:27:09 10° W 21:28:58 14° SW 21:29:11 14° SW visible
